Terminal Aerodrome Forecast
Issued by NWS

Current Version | Previous Version | Graphics & Text | Print | Product List | Glossary On
Versions: 1 2 3 4 5 6 7 8 9 10 11 12 13 14 15 16 17 18 19 20 21 22 23 24 25 26 27 28 29 30 31 32 33 34 35 36 37 38 39 40 41 42 43 44 45 46 47 48 49 50
000
FTUS41 KRNK 291721
TAFLWB
TAF
KLWB 291721Z 2918/3018 28009G16KT P6SM SKC
     FM300000 32004KT P6SM BKN150
     FM300700 00000KT 3SM BR SCT006 OVC090
     FM301100 05003KT 6SM BR OVC070
     FM301600 13003KT P6SM -RA OVC015=

USA.gov is the U.S. government's official web portal to all federal, state and local government web resources and services.